Regional Weather Roundup
Issued by NWS Binghamton, NY

Home | Current Version | Previous Version | Text Only | Print | Product List | Glossary On
Versions: 1 2 3 4 5 6 7 8 9 10 11 12 13 14 15 16 17 18 19 20 21 22 23 24 25 26 27 28 29 30 31 32 33 34 35 36 37 38 39 40 41 42 43 44 45 46 47 48 49 50
000
ASUS41 KBGM 200110
RWRBGM
RWRBGM
BINGHAMTON REGIONAL WEATHER ROUNDUP
NATIONAL WEATHER SERVICE BINGHAMTON NY
900 PM EDT SUN APR 19 2015

Note: "fair" indicates few or no clouds below 12,000 feet with no
significant weather and/or obstructions to visibility.

* = Station(s) that does not report precipitation, such as rain,
snow, etc, also no thunder or fog.

!NYZ009-015>018-022>025-036-037-044>046-055>057-062-200200
...CENTRAL NEW YORK...

CITY           SKY/WX    TMP DP  RH WIND       PRES   REMARKS
BINGHAMTON     CLOUDY    58  28  32 S10G21    30.02S
CORTLAND       FAIR      59  27  29 E6        30.01F
DANSVILLE      CLOUDY    65  30  27 SE10      29.90F
ELMIRA         CLOUDY    63  31  30 S14G20    29.97S
ITHACA         CLEAR     61  28  29 S12       29.99F
MONTICELLO     CLOUDY    48  34  57 SE9       30.15R
PENN YAN       CLOUDY    61  31  32 VRB5      29.95F
ROME           CLOUDY    54  25  32 E8        30.08R
SYRACUSE       CLOUDY    57  29  34 E16       30.00S
$$

!PAZ038>040-043-044-047-048-072-200200
...NORTHEAST PENNSYLVANIA...

CITY           SKY/WX    TMP DP  RH WIND       PRES   REMARKS
HAZLETON       CLOUDY    50  32  50 SE12G24   30.08F
SCRANTON       CLOUDY    54  33  45 VRB6G18   30.08S
TOWANDA*       CLEAR     61  36  39 S13G20    30.02S
$$
&&
KEY
WCI = WIND CHILL INDEX
VSB = VISIBILITY
HX  = HEAT INDEX
$$


USA.gov is the U.S. government's official web portal to all federal, state and local government web resources and services.